Weather Roundup
Issued by NWS

Home | Current Version | Previous Version | Graphics & Text | Print | Product List | Glossary Off
Versions: 1 2 3 4 5 6 7 8 9 10 11 12 13 14 15 16 17 18 19 20 21 22 23 24 25 26 27 28 29 30 31 32 33 34 35 36 37 38 39 40 41 42 43 44 45 46 47 48 49 50

259
NZUS93 KARX 011859
HRRWXR

CURRENT HOURLY OBSERVATIONS ACROSS
MUCH OF THE UPPER MISSISSIPPI VALLEY
NATIONAL WEATHER SERVICE LA CROSSE WI
200 PM CDT SUN MAY 01 2016


...SOUTHEAST MINNESOTA...


CITY           SKY/WX    TMP DP  RH WIND       PRES   REMARKS
ROCHESTER      CLOUDY    56  39  53 NE16      30.09S
ROCHESTER/MAYO MOCLDY    55  36  48 NE7       30.08F
WINONA         CLOUDY    59  36  41 E10       30.08S
AUSTIN         CLOUDY    52  39  62 N10       30.07F
ALBERT LEA     NOT AVBL
DODGE CENTER   CLOUDY    55  34  44 NE21G29   30.08F
PRESTON        CLOUDY    52  39  61 NE12G17   30.07S
OWATONNA       CLOUDY    57  39  51 E8        30.09F
FARIBAULT      NOT AVBL
$$

...ELSEWHERE IN MINNESOTA...


CITY           SKY/WX    TMP DP  RH WIND       PRES   REMARKS
MINNEAPOLIS    PTSUNNY   59  36  42 N12G18    30.12F
INTNL FALLS    SUNNY     55  29  36 N7        30.22F
DULUTH         MOSUNNY   50  36  58 E10       30.20F
RED WING       SUNNY     63  28  27 E13G23    30.08S
REDWOOD FALLS  MOSUNNY   59  33  37 NE10G22   30.15F
MANKATO        MOSUNNY   57  37  47 NE14      30.11F
WORTHINGTON    CLOUDY    52  41  66 N14G21    30.14F
FAIRMONT       CLOUDY    54  39  58 NE14G22   30.11S
$$

...SOUTHWEST WISCONSIN...


CITY           SKY/WX    TMP DP  RH WIND       PRES   REMARKS
LA CROSSE      CLOUDY    55  37  50 NE9       30.07S
PRAIRIE DU CHI CLOUDY    51  40  67 NE9       30.04S
BOSCOBEL       CLOUDY    52  43  71 VRB7      30.05F
LONE ROCK      NOT AVBL
PLATTEVILLE    CLOUDY    53  47  80 NE14G21   30.01F
FORT MC COY    CLOUDY    53  40  62 NE8G20    30.08F
MAUSTON-NEW LI CLOUDY    53  41  65 E6        30.06F
VIROQUA        CLOUDY    51  41  69 NE12      30.06S
WIS DELLS      CLOUDY    53  43  69 NE10      30.05F
$$

...ELSEWHERE IN WISCONSIN...


CITY           SKY/WX    TMP DP  RH WIND       PRES   REMARKS
MILWAUKEE      PTSUNNY   46  39  76 N16       30.04S
MADISON        CLOUDY    55  44  66 NE14      30.03F
GREEN BAY      MOSUNNY   55  40  56 NE18      30.09F
EAU CLAIRE     NOT AVBL
BLACK RVR FLS  CLOUDY    57  33  39 E10G16    30.07F
MEDFORD        CLOUDY    59  32  35 E10G21    30.07F
WAUSAU         PTSUNNY   62  30  29 NE14      30.05F
WIS RAPIDS     PTSUNNY   58  33  39 E9        30.09F
MARSHFIELD     CLOUDY    58  29  33 E10       30.07F
RICE LAKE      SUNNY     58  33  39 N14G20    30.13S
$$

...NORTHEAST IOWA...


CITY           SKY/WX    TMP DP  RH WIND       PRES   REMARKS
WATERLOO       LGT RAIN  47  43  86 NE12      30.04  FOG
DUBUQUE        CLOUDY    49  44  83 NE13      30.01S
DECORAH        CLOUDY    52  41  66 NE10      30.04F
MASON CITY     CLOUDY    51  43  74 NE15      30.08F
CHARLES CITY   CLOUDY    50  43  76 NE13      30.06F
OELWEIN        CLOUDY    48  46  93 NE13      30.03F FOG
$$

...ELSEWHERE IN IOWA...


CITY           SKY/WX    TMP DP  RH WIND       PRES   REMARKS
DES MOINES     LGT RAIN  47  44  90 N8        30.05S
IOWA CITY      LGT RAIN  48  46  93 NE7       30.02S
FORT DODGE     CLOUDY    45  39  81 N10G16    30.09R
MARSHALLTOWN   LGT RAIN  46  43  89 NE12      30.03S
CEDAR RAPIDS   LGT RAIN  47  47 100 NE12      30.00F FOG
$$

...NORTHERN ILLINOIS...


CITY           SKY/WX    TMP DP  RH WIND       PRES   REMARKS
CHICAGO-OHARE  CLOUDY    48  44  86 NE12      30.00R
CHICAGO-MIDWAY CLOUDY    49  44  83 NE10      30.01R
MOLINE         CLOUDY    52  46  80 E10       29.99R
ROCKFORD       CLOUDY    53  45  74 E12       30.02S
PEORIA         CLOUDY    54  50  86 NE10      29.96F
$$

NOTE: "FAIR" INDICATES FEW OR NO CLOUDS BELOW 12,000 FEET WITH NO
SIGNIFICANT WEATHER AND/OR OBSTRUCTIONS TO VISIBILITY. WIND
SPEEDS ARE IN MILES-PER-HOUR.




USA.gov is the U.S. government's official web portal to all federal, state and local government web resources and services.